OE5RBO Weather Reports


Display with metric or nautical units.
time (UTC)temp
F
wind
direction
speed
MPH
gust
MPH
rain 1hr
in
rain 24hr
in
rain mn
in
humidity
%
barometer
mb
20260505180858 62 31 4.0 7.0 0.00 0.00 0.00 83 1005.3
20260505175858 62 42 4.0 6.0 0.00 0.00 0.00 86 1005.3
20260505174857 62 25 3.0 5.0 0.00 0.00 0.00 84 1005.4
20260505173857 63 338 2.0 5.0 0.00 0.00 0.00 82 1005.5
20260505172857 63 314 1.0 3.0 0.00 0.00 0.00 80 1005.7
20260505171856 63 51 4.0 8.0 0.00 0.00 0.00 84 1005.8
20260505165856 64 173 4.0 9.0 0.00 0.00 0.00 76 1005.7
20260505164855 64 193 7.0 13.0 0.00 0.00 0.00 79 1005.6
20260505163855 64 207 7.0 15.0 0.00 0.00 0.00 79 1005.3
20260505162855 67 200 15.0 28.0 0.00 0.00 0.00 67 1005.1
20260505161854 74 191 5.0 13.0 0.00 0.00 0.00 45 1004.2
20260505160854 75 205 1.0 5.0 0.00 0.00 0.00 44 1004.0
20260505152852 76 7 2.0 6.0 0.00 0.00 0.00 48 1003.9
20260505151852 77 288 2.0 6.0 0.00 0.00 0.00 45 1003.9
20260505150852 77 288 2.0 6.0 0.00 0.00 0.00 48 1003.9
20260505124847 77 215 5.0 10.0 0.00 0.00 0.00 41 1004.8
20260505123846 77 160 5.0 12.0 0.00 0.00 0.00 40 1004.9
20260505122846 78 225 4.0 9.0 0.00 0.00 0.00 41 1005.2
20260505121846 78 288 3.0 10.0 0.00 0.00 0.00 40 1005.4
20260505120845 78 212 3.0 7.0 0.00 0.00 0.00 40 1005.5
20260505115845 77 219 3.0 7.0 0.00 0.00 0.00 40 1005.6
20260505114844 78 252 2.0 9.0 0.00 0.00 0.00 41 1005.9
20260505113844 80 215 1.0 6.0 0.00 0.00 0.00 41 1006.0
20260505112843 78 288 2.0 6.0 0.00 0.00 0.00 43 1006.1
20260505111843 77 343 2.0 8.0 0.00 0.00 0.00 46 1006.2
20260505110843 76 330 2.0 5.0 0.00 0.00 0.00 46 1006.3
20260505110239 78 221 2.0 6.0 0.00 0.00 0.00 40 1006.4
20260505100841 74 218 2.0 6.0 0.00 0.00 0.00 48 1007.3
20260505095840 74 246 2.0 6.0 0.00 0.00 0.00 49 1007.2
20260505094840 75 215 2.0 8.0 0.00 0.00 0.00 48 1007.3
20260505092839 76 270 2.0 9.0 0.00 0.00 0.00 48 1007.5
20260505090838 75 343 1.0 4.0 0.00 0.00 0.00 50 1007.6
20260505085838 75 256 0.0 2.0 0.00 0.00 0.00 53 1007.7
20260505084838 74 203 3.0 7.0 0.00 0.00 0.00 52 1007.7
20260505083838 76 24 2.0 5.0 0.00 0.00 0.00 53 1007.7
20260505082837 75 350 2.0 5.0 0.00 0.00 0.00 56 1007.8
20260505081838 74 201 0.0 2.0 0.00 0.00 0.00 58 1007.8
20260505080836 75 353 1.0 5.0 0.00 0.00 0.00 56 1007.9
20260505075836 74 166 1.0 4.0 0.00 0.00 0.00 57 1008.0
20260505074836 74 214 1.0 4.0 0.00 0.00 0.00 58 1008.0
20260505073835 75 326 0.0 1.0 0.00 0.00 0.00 55 1008.1
20260505072835 77 167 1.0 3.0 0.00 0.00 0.00 54 1008.2
20260505071834 78 0 0.0 0.0 0.00 0.00 0.00 53 1008.2
20260505070834 76 0 0.0 0.0 0.00 0.00 0.00 54 1008.2
20260505065834 74 138 0.0 1.0 0.00 0.00 0.00 55 1008.2
20260505064833 73 110 0.0 1.0 0.00 0.00 0.00 58 1008.2
20260505061832 68 150 0.0 3.0 0.00 0.00 0.00 66 1008.3
20260505060832 67 207 0.0 2.0 0.00 0.00 0.00 68 1008.5
20260505055832 65 215 1.0 3.0 0.00 0.00 0.00 70 1008.4
20260505053831 62 118 0.0 2.0 0.00 0.00 0.00 78 1008.4
20260505052830 62 0 0.0 0.0 0.00 0.00 0.00 82 1008.4
20260505051830 58 0 0.0 0.0 0.00 0.00 0.00 87 1008.5
20260505050830 55 0 0.0 0.0 0.00 0.00 0.00 92 1008.4
20260505040827 56 0 0.0 0.0 0.00 0.00 0.00 88 1008.7
20260505035827 57 211 0.0 1.0 0.00 0.00 0.00 85 1008.7
20260505034827 57 145 1.0 4.0 0.00 0.00 0.00 86 1008.5
20260505032826 58 55 2.0 4.0 0.00 0.00 0.00 85 1008.8
20260505031826 58 31 2.0 6.0 0.00 0.00 0.00 84 1008.9
20260505030826 59 127 1.0 3.0 0.00 0.00 0.00 83 1009.0
20260505024825 60 165 1.0 5.0 0.00 0.00 0.00 81 1009.1
20260505022824 60 135 2.0 5.0 0.00 0.00 0.00 81 1009.3
20260505021824 60 132 3.0 5.0 0.00 0.00 0.00 81 1009.3
20260505020824 60 167 2.0 5.0 0.00 0.00 0.00 81 1009.3
20260505015823 61 152 1.0 5.0 0.00 0.00 0.00 80 1009.3
20260505014823 61 156 2.0 5.0 0.00 0.00 0.00 79 1009.3
20260505013822 61 141 2.0 5.0 0.00 0.00 0.00 79 1009.4
20260505012822 61 132 2.0 7.0 0.00 0.00 0.00 79 1009.5
20260505011821 61 153 2.0 5.0 0.00 0.00 0.00 78 1009.5
20260505010821 61 156 3.0 6.0 0.00 0.00 0.00 77 1009.7
20260505005821 62 124 2.0 6.0 0.00 0.00 0.00 77 1009.8
20260505004821 62 115 1.0 3.0 0.00 0.00 0.00 77 1010.0
20260505002820 62 200 3.0 6.0 0.00 0.00 0.00 75 1010.1
20260505001819 62 172 3.0 6.0 0.00 0.00 0.00 75 1010.2
20260505000819 62 172 3.0 7.0 0.00 0.00 0.00 74 1010.3
20260504235818 63 211 2.0 7.0 0.00 0.00 0.00 74 1010.2
20260504234818 63 198 3.0 8.0 0.00 0.00 0.00 73 1010.3
20260504233818 63 190 3.0 8.0 0.00 0.00 0.00 72 1010.4
20260504232817 63 149 4.0 8.0 0.00 0.00 0.00 71 1010.3
20260504231817 63 201 3.0 6.0 0.00 0.00 0.00 73 1010.3
20260504230817 61 160 1.0 3.0 0.00 0.00 0.00 76 1010.2
20260504225816 60 131 4.0 8.0 0.00 0.00 0.00 79 1010.3
20260504224816 60 142 2.0 8.0 0.00 0.00 0.00 78 1010.0
20260504223815 60 158 1.0 3.0 0.00 0.00 0.00 80 1010.0
20260504222815 61 179 0.0 2.0 0.00 0.00 0.00 79 1010.0
20260504220815 63 0 0.0 0.0 0.00 0.00 0.00 74 1010.0
20260504215814 65 52 2.0 5.0 0.00 0.00 0.00 67 1010.0
20260504214814 64 52 3.0 7.0 0.00 0.00 0.00 67 1010.1
20260504213814 64 184 1.0 4.0 0.00 0.00 0.00 69 1010.2
20260504211812 63 152 3.0 5.0 0.00 0.00 0.00 70 1010.3
20260504210812 63 204 1.0 4.0 0.00 0.00 0.00 73 1010.2
20260504204811 64 153 0.0 1.0 0.00 0.00 0.00 71 1010.1
20260504203811 64 159 1.0 2.0 0.00 0.00 0.00 73 1010.1
20260504201811 66 34 0.0 2.0 0.00 0.00 0.00 67 1010.1
20260504200810 67 20 1.0 4.0 0.00 0.00 0.00 65 1010.2
20260504194809 69 51 8.0 13.0 0.00 0.00 0.00 58 1010.0
20260504193809 68 48 1.0 7.0 0.00 0.00 0.00 58 1010.0
20260504192809 69 11 3.0 6.0 0.00 0.00 0.00 58 1010.0
20260504191808 69 39 4.0 5.0 0.00 0.00 0.00 59 1010.0
20260504190808 70 59 2.0 4.0 0.00 0.00 0.00 57 1009.9
20260504185808 70 55 4.0 7.0 0.00 0.00 0.00 57 1009.8
20260504184807 70 72 3.0 5.0 0.00 0.00 0.00 58 1009.8
20260504183807 71 55 3.0 5.0 0.00 0.00 0.00 57 1009.6
20260504182806 71 58 3.0 4.0 0.00 0.00 0.00 55 1009.7